GONETS-M 22 (47229 NORAD) Tracking and Keplerian Element Data

This shows tracking and keplerian element data for the satellite.

Feedback or suggestion? Click here.




ElementValue
Catalog47229
NameGONETS-M 22
Epoch Orbit1615
Epoch Day102.18302199
Epoch Year2021
RAAN38.3282
Inclination82.5063
Eccentricity0.0021423
Argument of Perigee345.4565
Mean Anonmoly14.5999
Mean Motion12.42854168
Decay Rate-1.933E-05
L11 47229U 20091C 21102.18302199 -.00001933 00000-0 -14026-1 0 9997
L22 47229 82.5063 38.3282 0021423 345.4565 14.5999 12.42854168 16151

Live tracking and technical data element details for GONETS-M 22 (NORAD 47229). GONETS-M 22 can be tracked NOW for your location showing map with azimuth and elevation plus other details from your city location.

Track the satellite on the map from your city or location and see movement details for azimuth, elevation, latitude, longitude, range, height, and movement on the map or in text.







IsCatalogInMostPopularTable: catalog: 47229, numindb: 48
Update: records affected: 1



GetName: 47229 GONETS-M 22

Hit Count: updated at: Tue, 13 Apr 2021 03:56:33 GMT